| time (UTC) | temp F | wind direction | speed MPH | gust MPH | rain 1hr in | rain 24hr in | rain mn in | humidity % | barometer mb |
| 20260503213324 | 74 | 284 | 6.0 | 10.0 | 0.00 | 0.04 | 0.01 | 37 | 1017.0 |
| 20260503212319 | 73 | 288 | 3.0 | 9.0 | 0.00 | 0.04 | 0.01 | 35 | 1017.0 |
| 20260503211344 | 74 | 286 | 4.0 | 8.0 | 0.00 | 0.04 | 0.01 | 34 | 1016.9 |
| 20260503210319 | 74 | 279 | 6.0 | 14.0 | 0.00 | 0.04 | 0.01 | 35 | 1016.9 |
| 20260503205338 | 74 | 242 | 3.0 | 10.0 | 0.00 | 0.04 | 0.01 | 36 | 1017.0 |
| 20260503204310 | 74 | 276 | 6.0 | 13.0 | 0.00 | 0.04 | 0.01 | 37 | 1017.2 |
| 20260503203309 | 73 | 281 | 5.0 | 11.0 | 0.00 | 0.04 | 0.01 | 37 | 1017.2 |
| 20260503202351 | 73 | 257 | 8.0 | 14.0 | 0.00 | 0.04 | 0.01 | 37 | 1017.3 |
| 20260503201326 | 73 | 255 | 4.0 | 13.0 | 0.00 | 0.04 | 0.01 | 38 | 1017.5 |
| 20260503200325 | 72 | 260 | 6.0 | 11.0 | 0.00 | 0.04 | 0.01 | 41 | 1017.6 |
| 20260503195320 | 73 | 229 | 5.0 | 13.0 | 0.00 | 0.08 | 0.01 | 39 | 1017.8 |
| 20260503194316 | 73 | 327 | 3.0 | 15.0 | 0.00 | 0.08 | 0.01 | 41 | 1017.9 |
| 20260503193335 | 73 | 287 | 6.0 | 11.0 | 0.00 | 0.08 | 0.01 | 40 | 1018.1 |
| 20260503192332 | 72 | 264 | 5.0 | 13.0 | 0.00 | 0.08 | 0.01 | 40 | 1018.1 |
| 20260503191325 | 72 | 249 | 7.0 | 11.0 | 0.00 | 0.08 | 0.01 | 40 | 1018.4 |
| 20260503190318 | 72 | 265 | 7.0 | 14.0 | 0.00 | 0.08 | 0.01 | 39 | 1018.6 |
| 20260503185315 | 71 | 306 | 5.0 | 15.0 | 0.00 | 0.16 | 0.01 | 41 | 1018.7 |
| 20260503184310 | 71 | 265 | 7.0 | 15.0 | 0.00 | 0.16 | 0.01 | 41 | 1018.7 |
| 20260503183327 | 71 | 338 | 5.0 | 12.0 | 0.00 | 0.16 | 0.01 | 40 | 1018.7 |
| 20260503182317 | 70 | 304 | 7.0 | 14.0 | 0.00 | 0.16 | 0.01 | 45 | 1019.0 |
| 20260503181320 | 69 | 272 | 8.0 | 14.0 | 0.00 | 0.16 | 0.01 | 44 | 1019.2 |
| 20260503180334 | 70 | 229 | 5.0 | 11.0 | 0.00 | 0.16 | 0.01 | 41 | 1019.1 |
| 20260503175309 | 69 | 139 | 4.0 | 12.0 | 0.00 | 0.24 | 0.01 | 47 | 1019.3 |
| 20260503174322 | 69 | 257 | 9.0 | 17.0 | 0.00 | 0.24 | 0.01 | 44 | 1019.4 |
| 20260503173320 | 69 | 234 | 5.0 | 15.0 | 0.00 | 0.24 | 0.01 | 46 | 1019.5 |
| 20260503172316 | 68 | 286 | 5.0 | 13.0 | 0.00 | 0.24 | 0.01 | 45 | 1019.6 |
| 20260503171309 | 68 | 289 | 5.0 | 15.0 | 0.00 | 0.24 | 0.01 | 48 | 1019.7 |
| 20260503170346 | 68 | 296 | 3.0 | 12.0 | 0.00 | 0.24 | 0.01 | 47 | 1019.8 |
| 20260503150345 | 62 | 298 | 4.0 | 11.0 | 0.00 | 0.71 | 0.01 | 52 | 1020.7 |
| 20260503140315 | 59 | 307 | 5.0 | 13.0 | 0.00 | 1.26 | 0.01 | 58 | 1020.5 |
| 20260503131323 | 56 | 292 | 3.0 | 10.0 | 0.00 | 1.42 | 0.01 | 64 | 1020.6 |
| 20260503130312 | 55 | 294 | 5.0 | 10.0 | 0.00 | 1.42 | 0.01 | 71 | 1020.6 |
| 20260503110349 | 46 | 309 | 2.0 | 7.0 | 0.00 | 1.73 | 0.01 | 85 | 1019.1 |
| 20260503090314 | 46 | 297 | 3.0 | 5.0 | 0.04 | 2.40 | 0.01 | 89 | 1017.9 |
| 20260503081310 | 47 | 271 | 3.0 | 5.0 | 0.00 | 2.36 | 0.00 | 90 | 1017.3 |
| 20260503080348 | 48 | 277 | 2.0 | 4.0 | 0.00 | 2.36 | 0.00 | 90 | 1017.2 |
| 20260503072309 | 49 | 265 | 3.0 | 6.0 | 0.00 | 2.36 | 0.00 | 91 | 1016.8 |
| 20260503071312 | 49 | 272 | 3.0 | 6.0 | 0.00 | 2.36 | 0.00 | 91 | 1016.6 |
| 20260503070323 | 49 | 298 | 3.0 | 7.0 | 0.00 | 2.36 | 0.00 | 92 | 1016.5 |
| 20260503060321 | 51 | 247 | 3.0 | 7.0 | 0.00 | 2.36 | 0.00 | 93 | 1016.1 |
| 20260503054318 | 51 | 269 | 2.0 | 6.0 | 0.00 | 2.36 | 0.00 | 94 | 1016.2 |
| 20260503053332 | 52 | 259 | 3.0 | 6.0 | 0.00 | 2.36 | 0.00 | 94 | 1016.1 |
| 20260503052314 | 52 | 286 | 2.0 | 5.0 | 0.00 | 2.36 | 0.00 | 94 | 1016.0 |
| 20260503051335 | 52 | 277 | 3.0 | 7.0 | 0.00 | 2.36 | 0.00 | 94 | 1016.1 |
| 20260503050329 | 52 | 269 | 3.0 | 7.0 | 0.00 | 2.36 | 0.00 | 94 | 1016.1 |
| 20260503045349 | 52 | 270 | 3.0 | 6.0 | 0.00 | 2.36 | 0.00 | 93 | 1016.0 |
| 20260503044320 | 52 | 259 | 3.0 | 6.0 | 0.00 | 2.36 | 0.00 | 93 | 1016.0 |
| 20260503043340 | 52 | 279 | 2.0 | 4.0 | 0.00 | 2.36 | 0.00 | 93 | 1016.0 |
| 20260503042312 | 52 | 265 | 2.0 | 4.0 | 0.00 | 2.36 | 0.00 | 93 | 1015.9 |
| 20260503041332 | 52 | 259 | 2.0 | 6.0 | 0.00 | 2.36 | 0.00 | 93 | 1015.9 |
| 20260503040321 | 52 | 262 | 2.0 | 6.0 | 0.00 | 2.36 | 0.00 | 93 | 1015.8 |
| 20260503035320 | 52 | 254 | 3.0 | 4.0 | 0.00 | 2.36 | 0.60 | 93 | 1015.6 |
| 20260503034315 | 52 | 247 | 2.0 | 4.0 | 0.00 | 2.36 | 0.60 | 93 | 1015.5 |
| 20260503033322 | 53 | 261 | 2.0 | 4.0 | 0.00 | 2.36 | 0.60 | 94 | 1015.5 |
| 20260503032317 | 53 | 273 | 2.0 | 4.0 | 0.00 | 2.36 | 0.60 | 94 | 1015.4 |
| 20260503031313 | 53 | 271 | 2.0 | 4.0 | 0.00 | 2.36 | 0.60 | 94 | 1015.2 |
| 20260503030316 | 53 | 269 | 2.0 | 4.0 | 0.00 | 2.36 | 0.60 | 94 | 1015.2 |
| 20260503025312 | 53 | 274 | 0.0 | 1.0 | 0.00 | 2.36 | 0.60 | 93 | 1015.1 |
| 20260503024312 | 53 | 274 | 0.0 | 2.0 | 0.00 | 2.36 | 0.60 | 93 | 1015.3 |
| 20260503023328 | 53 | 275 | 1.0 | 3.0 | 0.00 | 2.36 | 0.60 | 93 | 1015.3 |
| 20260503022329 | 53 | 277 | 1.0 | 2.0 | 0.00 | 2.36 | 0.60 | 93 | 1015.3 |
| 20260503021323 | 53 | 262 | 1.0 | 2.0 | 0.00 | 2.36 | 0.60 | 93 | 1015.3 |
| 20260503020316 | 54 | 289 | 2.0 | 3.0 | 0.00 | 2.36 | 0.60 | 93 | 1015.3 |
| 20260503015316 | 54 | 285 | 2.0 | 3.0 | 0.00 | 2.36 | 0.60 | 93 | 1015.2 |
| 20260503014309 | 54 | 284 | 2.0 | 3.0 | 0.00 | 2.36 | 0.60 | 93 | 1015.0 |
| 20260503013328 | 54 | 287 | 1.0 | 2.0 | 0.00 | 2.36 | 0.60 | 93 | 1014.8 |
| 20260503012321 | 55 | 287 | 1.0 | 2.0 | 0.00 | 2.36 | 0.60 | 92 | 1014.6 |
| 20260503011342 | 55 | 293 | 1.0 | 2.0 | 0.00 | 2.36 | 0.60 | 93 | 1014.6 |
| 20260503010316 | 55 | 300 | 1.0 | 2.0 | 0.00 | 2.36 | 0.60 | 92 | 1014.4 |
| 20260503005311 | 55 | 300 | 1.0 | 2.0 | 0.00 | 2.36 | 0.60 | 92 | 1014.1 |
| 20260503004318 | 55 | 309 | 1.0 | 2.0 | 0.00 | 2.36 | 0.60 | 92 | 1014.1 |
| 20260503003340 | 55 | 329 | 1.0 | 2.0 | 0.00 | 2.36 | 0.60 | 92 | 1014.0 |
| 20260503002337 | 55 | 339 | 0.0 | 1.0 | 0.00 | 2.36 | 0.60 | 91 | 1013.7 |
| 20260503001316 | 56 | 319 | 0.0 | 2.0 | 0.00 | 2.36 | 0.60 | 91 | 1013.6 |
| 20260503000313 | 56 | 326 | 1.0 | 3.0 | 0.00 | 2.36 | 0.60 | 91 | 1013.6 |
| 20260502235309 | 56 | 329 | 2.0 | 3.0 | 0.00 | 2.36 | 0.60 | 91 | 1013.2 |
| 20260502234313 | 56 | 332 | 0.0 | 2.0 | 0.00 | 2.36 | 0.60 | 91 | 1013.3 |
| 20260502233328 | 56 | 328 | 1.0 | 3.0 | 0.00 | 2.36 | 0.60 | 91 | 1013.2 |
| 20260502232331 | 56 | 355 | 1.0 | 3.0 | 0.00 | 2.36 | 0.60 | 91 | 1013.0 |
| 20260502231309 | 56 | 5 | 0.0 | 2.0 | 0.00 | 2.36 | 0.60 | 91 | 1012.9 |
| 20260502230327 | 56 | 355 | 1.0 | 2.0 | 0.00 | 2.36 | 0.60 | 91 | 1013.0 |
| 20260502225327 | 56 | 13 | 0.0 | 3.0 | 0.00 | 2.36 | 0.60 | 91 | 1013.3 |
| 20260502224323 | 56 | 335 | 2.0 | 3.0 | 0.00 | 2.36 | 0.60 | 91 | 1013.2 |
| 20260502223326 | 56 | 325 | 2.0 | 4.0 | 0.00 | 2.36 | 0.60 | 91 | 1013.1 |
| 20260502222339 | 56 | 335 | 2.0 | 4.0 | 0.00 | 2.36 | 0.60 | 91 | 1013.1 |
| 20260502221317 | 56 | 349 | 1.0 | 4.0 | 0.00 | 2.36 | 0.60 | 91 | 1012.9 |
| 20260502220313 | 56 | 11 | 2.0 | 5.0 | 0.00 | 2.36 | 0.60 | 91 | 1012.9 |
| 20260502215335 | 57 | 286 | 3.0 | 5.0 | 0.00 | 2.36 | 0.60 | 91 | 1012.9 |
| 20260502214315 | 56 | 330 | 1.0 | 4.0 | 0.00 | 2.36 | 0.60 | 91 | 1012.9 |